[[{"header":{"parameterUnit":"m.s-1","parameterCategory":1,"la1":30.2991,"la2":30.254,"lo1":-89.0895,"lo2":-89.0444,"dy":0.0017,"dx":0.0017,"nx":28,"ny":28,"refTime":"2024-05-13T09:00:00:Z","depth":0,"parameterNumber":2,"parameterNumberName":"U-component_of_WINDS"},"data":[0,0,0,0,0,0,0,0,0,0,0,0,0,0,0,0,0,0,0,0,0,0,0,0,0,0,0,0,0,0,0,0,0,0,0,0,0,0,0,0,0,0,0,0,0,0,0,0,0,0,0,0,0,0,0,0,0,0,0.7787,0.7785,0,0.757,0.7567,0.7565,0.7402,0.7401,0.74,0.7398,0.7168,0.7163,0.7158,0,0,0,0,0,0,0,0,0,0,0,0,0,0.8055,0.8051,0.7787,0.7785,0.7782,0.757,0.7567,0.7564,0.7403,0.7401,0.7399,0.7398,0.7169,0.7164,0.7158,0,0,0,0,0,0,0,0,0,0,0,0,0,0.7898,0.805,0.7788,0.7676,0.7664,0.7571,0.7567,0.7563,0.7403,0.7401,0.7399,0.7397,0.7171,0.7164,0.7157,0.7155,0,0,0.7135,0.7132,0,0,0,0,0,0,0,0,0.7907,0.7889,0.7695,0.7684,0.767,0.7511,0.7577,0.7426,0.7404,0.7502,0.7398,0.7396,0.7283,0.7267,0.723,0.7144,0.7135,0.7135,0.713,0.7127,0.7125,0,0,0,0,0,0,0,0.7919,0.7897,0.7701,0.7693,0.7677,0.7634,0.761,0.7548,0.7407,0.7493,0.7481,0.7458,0.7276,0.7238,0.7224,0.7131,0.7135,0.7128,0.7124,0.7121,0.7031,0.7032,0,0,0,0,0,0,0.7948,0.7907,0.7708,0.7694,0.7786,0.7631,0.7604,0.7564,0.7407,0.7381,0.746,0.7451,0.7251,0.7232,0.7215,0.7201,0.7127,0.712,0.7116,0.7029,0.7031,0.7033,0,0,0,0,0,0,0.7954,0.7932,0.7717,0.7797,0.7767,0.7629,0.7586,0.7561,0.7523,0.7382,0.7355,0.7447,0.7249,0.7225,0.7171,0.7191,0.7117,0.7111,0.7026,0.7029,0.7032,0.7175,0,0,0,0,0,0,0.7963,0.7935,0.7935,0.7799,0.7763,0.768,0.7587,0.7558,0.7512,0.7498,0.7363,0.7339,0.7245,0.7183,0.7164,0.718,0.7105,0.7024,0.7028,0.7031,0.7168,0.7182,0.7195,0,0,0,0,0,0.7973,0.7982,0.7936,0.7912,0.776,0.7681,0.766,0.7555,0.7514,0.7511,0.7421,0.7343,0.7192,0.7179,0.7156,0.717,0.7022,0.7027,0.7031,0.7162,0.7179,0.7194,0,0,0,0,0,0,0.8121,0.7962,0.7909,0.7875,0.7793,0.7654,0.7647,0.7577,0.7503,0.7493,0.7363,0.7334,0.7293,0.7226,0.7214,0.7159,0.7097,0.7097,0.7204,0.722,0.7233,0.725,0.7099,0,0,0,0,0,0.8151,0.8102,0.7965,0.7948,0.791,0.7787,0.7748,0.7674,0.7582,0.7546,0.7452,0.7364,0.7296,0.7254,0.7185,0.7157,0.7124,0.7155,0.7169,0.7181,0.7182,0.7161,0.7172,0.7047,0.7047,0.7047,0,0,0.821,0.8117,0.8094,0.7975,0.7903,0.7853,0.7758,0.7709,0.767,0.7538,0.7482,0.741,0.7303,0.7262,0.7239,0.7205,0.7209,0.7186,0.7197,0.7191,0.7166,0.7178,0.7189,0.705,0.705,0.7049,0,0,0.8292,0.8218,0.8195,0.8125,0.8018,0.7936,0.7931,0.7802,0.775,0.7692,0.7592,0.7542,0.7429,0.7357,0.7305,0.736,0.7285,0.7341,0.7411,0.7392,0.7402,0.741,0.7428,0.7436,0.7343,0.7343,0.7343,0,0.8378,0.8301,0.8192,0.8149,0.8099,0.798,0.7955,0.7891,0.7766,0.7733,0.7697,0.7552,0.7472,0.7412,0.7426,0.7389,0.7377,0.7355,0.741,0.7417,0.7422,0.7438,0.7446,0.7351,0.735,0.7349,0.7348,0,0.8411,0.836,0.8354,0.8239,0.8188,0.8155,0.8038,0.7999,0.793,0.7851,0.7793,0.7692,0.76,0.758,0.7511,0.751,0.7492,0.7435,0.737,0.7444,0.7456,0.7461,0.7361,0.7358,0.7356,0.7354,0,0,0.8579,0.8406,0.8405,0.8351,0.8224,0.8181,0.8141,0.8053,0.8022,0.7939,0.7901,0.7809,0.7755,0.7697,0.7618,0.7602,0.765,0.7545,0.7541,0.7567,0.7641,0.7684,0.7693,0.76,0.7601,0.7602,0.7649,0,0.864,0.8565,0.8466,0.8423,0.8373,0.8259,0.8224,0.8141,0.8066,0.801,0.7926,0.7862,0.7797,0.7761,0.774,0.7649,0.7663,0.7644,0.756,0.7559,0.759,0.77,0.7745,0.7795,0.7654,0.7655,0.7655,0,0.8701,0.8628,0.8581,0.8458,0.8433,0.8404,0.8315,0.8264,0.8167,0.8113,0.805,0.7965,0.7915,0.7859,0.7785,0.7775,0.7735,0.7685,0.7684,0.7671,0.7611,0.7688,0.7809,0.7816,0.7662,0.7661,0.7661,0,0.8827,0.8716,0.8673,0.8631,0.8487,0.8469,0.8407,0.8309,0.8262,0.8183,0.8151,0.8067,0.8021,0.7956,0.7851,0.782,0.7789,0.7724,0.774,0.7743,0.7738,0.7739,0.7852,0.7715,0.7715,0.7715,0.7715,0,0.8904,0.888,0.8728,0.8702,0.867,0.8555,0.8526,0.8454,0.8367,0.8323,0.8218,0.8178,0.8042,0.7985,0.7902,0.7854,0.7833,0.7787,0.7765,0.7795,0.7801,0.7766,0.7759,0.7717,0.7716,0.7716,0.7716,0,0.9038,0.8936,0.8882,0.8751,0.8718,0.87,0.8586,0.8555,0.8475,0.842,0.8401,0.8274,0.8201,0.809,0.7984,0.7928,0.7893,0.7857,0.7927,0.7913,0.7936,0.7935,0.8029,0.8034,0.7897,0.7898,0.7899,0,0.9094,0.9073,0.8941,0.8905,0.8848,0.8792,0.8744,0.863,0.8584,0.8472,0.8454,0.8375,0.8305,0.8194,0.8091,0.8009,0.7969,0.8008,0.7956,0.7987,0.7968,0.797,0.7966,0.802,0.8022,0.8024,0.8025,0,0.9203,0.9153,0.9091,0.9011,0.8958,0.8888,0.8813,0.8789,0.8658,0.8611,0.8538,0.8484,0.8377,0.8298,0.8203,0.8135,0.8058,0.8043,0.8042,0.8072,0.8113,0.8089,0.7958,0.804,0.8039,0.8038,0.8037,0.8036,0.9297,0.9273,0.9177,0.911,0.9042,0.8975,0.8939,0.8856,0.8794,0.87,0.8635,0.8565,0.8467,0.833,0.8268,0.8209,0.8176,0.8175,0.8174,0.8176,0.8187,0.8124,0.8192,0.8191,0.819,0.819,0.8189,0,0.9399,0.9332,0.9272,0.9172,0.912,0.9055,0.8968,0.8927,0.8868,0.8785,0.8719,0.8634,0.8557,0.8449,0.8363,0.8337,0.8299,0.8319,0.8318,0.8304,0.8222,0.8231,0.8351,0.8351,0.8351,0.8351,0.8351,0.8351,0.9446,0.9401,0.9341,0.9261,0.9192,0.9126,0.9082,0.9018,0.8951,0.8862,0.8799,0.873,0.8635,0.8542,0.8468,0.8438,0.841,0.8441,0.8399,0.8325,0.831,0.8296,0.8303,0.8436,0.8436,0.8485,0.8486,0.8486]},{"header":{"parameterUnit":"m.s-1","parameterCategory":1,"la1":30.2991,"la2":30.254,"lo1":-89.0895,"lo2":-89.0444,"dy":0.0017,"dx":0.0017,"nx":28,"ny":28,"refTime":"2024-05-13T09:00:00:Z","depth":0,"parameterNumber":3,"parameterNumberName":"V-component_of_WINDS"},"data":[0,0,0,0,0,0,0,0,0,0,0,0,0,0,0,0,0,0,0,0,0,0,0,0,0,0,0,0,0,0,0,0,0,0,0,0,0,0,0,0,0,0,0,0,0,0,0,0,0,0,0,0,0,0,0,0,0,0,8.2415,8.2414,0,8.2358,8.2357,8.2357,8.2244,8.2242,8.2239,8.2237,8.2182,8.2182,8.2183,0,0,0,0,0,0,0,0,0,0,0,0,0,8.2429,8.2429,8.2415,8.2414,8.2413,8.2358,8.2357,8.2357,8.2244,8.2242,8.2239,8.2236,8.2182,8.2182,8.2183,0,0,0,0,0,0,0,0,0,0,0,0,0,8.2403,8.2429,8.2415,8.2351,8.2344,8.2358,8.2357,8.2356,8.2245,8.2242,8.2238,8.2235,8.2181,8.2182,8.2183,8.2256,0,0,8.2186,8.2186,0,0,0,0,0,0,0,0,8.2404,8.2402,8.2361,8.2355,8.2348,8.2305,8.2342,8.2323,8.2246,8.2283,8.2237,8.2233,8.2226,8.2223,8.2219,8.2253,8.2251,8.2186,8.2187,8.2187,8.2187,0,0,0,0,0,0,0,8.2406,8.2404,8.2392,8.236,8.2353,8.2326,8.2318,8.2338,8.2274,8.2279,8.2271,8.2266,8.2221,8.2219,8.2217,8.225,8.2186,8.2187,8.2187,8.2188,8.2341,8.2344,0,0,0,0,0,0,8.2417,8.2406,8.2394,8.2391,8.2368,8.2328,8.232,8.2322,8.2273,8.2262,8.2269,8.2261,8.2219,8.2216,8.2215,8.2296,8.2187,8.2188,8.2188,8.2338,8.2342,8.2346,0,0,0,0,0,0,8.2418,8.2417,8.2396,8.2396,8.2392,8.2331,8.2335,8.2323,8.232,8.2265,8.2253,8.2277,8.2216,8.2214,8.2246,8.2293,8.2188,8.2189,8.2333,8.2339,8.2344,8.2461,0,0,0,0,0,0,8.2419,8.2418,8.2444,8.2398,8.2392,8.2428,8.2338,8.2324,8.2321,8.231,8.227,8.226,8.2213,8.2246,8.2247,8.2292,8.219,8.2329,8.2336,8.2342,8.2452,8.2469,8.2484,0,0,0,0,0,8.242,8.248,8.2446,8.2445,8.2423,8.2431,8.2428,8.2372,8.2326,8.2352,8.2317,8.2262,8.2288,8.225,8.2251,8.2297,8.2326,8.2334,8.2342,8.2445,8.2466,8.2483,0,0,0,0,0,0,8.2534,8.2473,8.2434,8.2481,8.2462,8.2412,8.2443,8.2396,8.239,8.238,8.2311,8.2303,8.2345,8.2324,8.2283,8.2365,8.2298,8.2307,8.2377,8.2396,8.2411,8.2415,8.219,0,0,0,0,0,8.2565,8.2575,8.2521,8.2568,8.256,8.2504,8.2505,8.2464,8.2442,8.2433,8.2401,8.2382,8.2386,8.239,8.239,8.2449,8.2439,8.2482,8.2497,8.2511,8.2518,8.2548,8.2566,8.2372,8.2372,8.2372,0,0,8.2628,8.2596,8.2607,8.259,8.257,8.2584,8.2498,8.2516,8.2525,8.2436,8.2464,8.2441,8.2415,8.2462,8.248,8.2445,8.257,8.2521,8.2532,8.2532,8.2558,8.2576,8.2593,8.2377,8.2376,8.2375,0,0,8.275,8.2727,8.2763,8.2745,8.2717,8.2679,8.2688,8.2645,8.2625,8.2653,8.2587,8.2598,8.2606,8.259,8.2584,8.2702,8.2651,8.2704,8.2786,8.2816,8.2831,8.2844,8.2886,8.2902,8.2713,8.2713,8.2713,0,8.2833,8.2849,8.2788,8.281,8.2805,8.2725,8.2761,8.2747,8.2721,8.272,8.2681,8.269,8.2667,8.2709,8.2738,8.2735,8.2744,8.2708,8.2834,8.2846,8.2858,8.2897,8.2913,8.272,8.2719,8.2718,8.2718,0,8.2952,8.2965,8.2998,8.2973,8.2972,8.3001,8.2946,8.2952,8.2911,8.2878,8.2908,8.2878,8.2871,8.2878,8.2839,8.2915,8.2894,8.2846,8.2777,8.2884,8.2919,8.2934,8.2729,8.2727,8.2725,8.2723,0,0,8.3143,8.3085,8.3098,8.3086,8.3049,8.3058,8.3085,8.3077,8.3084,8.3069,8.309,8.3099,8.3054,8.3047,8.3006,8.3032,8.3127,8.298,8.2979,8.3008,8.3208,8.3244,8.3262,8.3094,8.3096,8.3099,8.321,0,8.3256,8.3296,8.3243,8.3295,8.3306,8.3231,8.3254,8.3235,8.3205,8.3211,8.3178,8.3186,8.3127,8.3122,8.3144,8.3111,8.3166,8.3102,8.3112,8.3113,8.312,8.3281,8.3318,8.3425,8.3224,8.3226,8.3228,0,8.3393,8.3384,8.3437,8.3397,8.34,8.3421,8.3411,8.3417,8.3394,8.3371,8.3364,8.3314,8.3338,8.3272,8.3305,8.3262,8.3264,8.3248,8.3251,8.3248,8.3176,8.3282,8.3458,8.3474,8.3249,8.3247,8.3246,0,8.3526,8.3527,8.3559,8.3552,8.3506,8.3523,8.3505,8.3478,8.3478,8.3469,8.3468,8.3463,8.346,8.3458,8.3408,8.3365,8.3447,8.3377,8.3428,8.343,8.3447,8.3447,8.3625,8.3451,8.3451,8.345,8.345,0,8.3657,8.3692,8.3618,8.3638,8.3676,8.3615,8.3655,8.3629,8.3607,8.3621,8.3556,8.3571,8.3506,8.3514,8.3476,8.3508,8.3508,8.349,8.3479,8.3495,8.3497,8.3494,8.3485,8.3454,8.3453,8.3453,8.3452,0,8.3811,8.3763,8.3793,8.3748,8.3737,8.3767,8.3729,8.3746,8.3712,8.3731,8.3732,8.368,8.3686,8.3637,8.3635,8.3609,8.3659,8.3636,8.3667,8.3659,8.3712,8.3708,8.3894,8.3915,8.3729,8.373,8.3732,0,8.3897,8.3923,8.388,8.3885,8.387,8.3878,8.3877,8.3819,8.382,8.3796,8.3817,8.3817,8.3815,8.3829,8.3791,8.3789,8.3765,8.383,8.3764,8.3779,8.3765,8.3763,8.3765,8.3844,8.3846,8.3848,8.3849,0,8.4055,8.403,8.403,8.4023,8.4023,8.4015,8.4002,8.401,8.3947,8.3952,8.3957,8.3956,8.3953,8.3955,8.3945,8.3928,8.3879,8.3871,8.3882,8.3898,8.3914,8.3905,8.3703,8.3866,8.3865,8.3864,8.3863,8.3862,8.4177,8.4196,8.4169,8.4172,8.4156,8.4146,8.416,8.4128,8.4131,8.4124,8.409,8.4102,8.4079,8.4061,8.4048,8.4057,8.4025,8.4042,8.4046,8.4051,8.406,8.3914,8.4055,8.4055,8.4054,8.4054,8.4053,0,8.4331,8.431,8.4313,8.4297,8.43,8.4253,8.4237,8.4243,8.4253,8.4236,8.4235,8.4241,8.4243,8.4206,8.4204,8.4218,8.4195,8.4219,8.4217,8.4213,8.4089,8.4079,8.4237,8.4237,8.4237,8.4237,8.4237,8.4237,8.4411,8.4441,8.4413,8.4435,8.4414,8.4424,8.4419,8.441,8.4395,8.4405,8.4406,8.4382,8.4357,8.4352,8.4352,8.4341,8.4343,8.4374,8.4356,8.424,8.4222,8.4205,8.4195,8.4375,8.4375,8.4479,8.448,8.4481]}]]